Regional Weather Roundup
Issued by NWS Midland/Odessa, TX

Skip options and go directly to product.
Home | Oldest Version | Previous Version | Current Version | All | Text Only | Save Text | Print | Product List | Glossary On

Skip product version selection by date and time.   
150
ASUS44 KMAF 301210
RWRMAF
MIDLAND AREA WEATHER ROUNDUP
NATIONAL WEATHER SERVICE MIDLAND TX
700 AM CDT THU OCT 30 2014

...IN SOUTHWEST TEXAS AND SOUTHEAST NEW MEXICO...

CITY           SKY/WX    TMP DP  RH WIND       PRES   REMARKS
ALPINE         CLEAR     50  48  93 SW5       30.26R
ANDREWS        FAIR      49  48  97 NW3       30.13R
ARTESIA        NOT AVBL
BIG SPRING     CLEAR     59  56  91 S7        30.13R
CARLSBAD       CLEAR     47  44  90 CALM      30.13R
DRYDEN           N/A     62  61  96 N7        30.10R
FORT STOCKTON  CLEAR     57  54  89 SW6       30.13R
GUAD PASS      CLEAR     52  43  71 SW9       30.25R
HOBBS          CLEAR     50  50 100 W5        30.15
MARFA          CLEAR     45  43  93 NW3       30.24R
MIDLAND AIRPK  CLEAR     57  54  89 S5        30.12S
MIDLAND INTL   CLEAR     55  52  89 S5        30.11R
ODESSA         CLEAR     56  52  86 S5        30.12R
PECOS          CLEAR     50  47  90 W3        30.12R
PRESIDIO       FAIR      65  54  67 MISG      30.13R
SEMINOLE       CLEAR     48  47  96 CALM      30.14R FOG
SNYDER         CLEAR     53  51  94 S3        30.11S
WINK           CLEAR     50  45  83 N5        30.11R
$$
...OTHER STATIONS IN TEXAS...

CITY           SKY/WX    TMP DP  RH WIND       PRES   REMARKS
ABILENE        CLEAR     58  50  75 S8        30.11S
AMARILLO       CLEAR     45  43  93 NW5       30.14R
AUSTIN         PTCLDY    58  58 100 NE5       30.12R
BROWNSVILLE    CLEAR     68  67  96 CALM      30.04R FOG
CORPUS CHRISTI CLOUDY    72  70  93 NE10      30.07R FOG
DALLAS FTW     CLEAR     56  46  69 SE5       30.13R
DEL RIO        CLEAR     66  62  87 E10       30.08R
EL PASO        CLEAR     53  42  66 N8        30.17R
HOUSTON INT    PTCLDY    56  52  86 NE5       30.11S
LUBBOCK        CLEAR     49  45  86 W6        30.11R
SAN ANGELO     CLEAR     56  53  90 CALM      30.11R
SAN ANTONIO    CLOUDY    67  63  87 E7        30.11R
WACO           PTCLDY    51  48  89 CALM      30.13R
WICHITA FALLS  NOT AVBL
$$
...OTHER LOCATIONS IN NEW MEXICO...

CITY           SKY/WX    TMP DP  RH WIND       PRES   REMARKS
ALAMAGORDO     NOT AVBL
ALBUQUERQUE    CLEAR     50  12  21 N12       30.29R
CANNON AFB     CLEAR     47  42  82 NW12      30.15R
CLOVIS         CLEAR     45  41  87 NW12      30.17R WCI  39
HOLLOMAN AFB   PTCLDY    45  35  68 E3        30.18R
ROSWELL        PTCLDY    46  43  89 NW3       30.16R
RUIDOSO        CLEAR     54  27  35 NW10      30.31R
SANTA FE       PTCLDY    39  11  31 N14       30.31S WCI  31
TRUTH OR CONSE CLEAR     50  34  54 N5        30.23R
TUCUMCARI      CLEAR     41  33  73 NW8       30.17R WCI  36
$$

USA.gov is the U.S. government's official web portal to all federal, state and local government web resources and services.